Change the Weather History Date:

Tuesday, September 10, 2013

  Actual Average Record
Temperature  
Mean Temperature 66 °F -  
Max Temperature 77 °F 76 °F 100 °F (1998)
Min Temperature 57 °F 50 °F 35 °F (2007)
Cooling Degree Days 1    
Growing Degree Days 16 (Base 50)    
Moisture  
Dew Point 51 °F    
Average Humidity 59    
Maximum Humidity 89    
Minimum Humidity 36    
Precipitation  
Precipitation 0.00 in - - ()
Sea Level Pressure  
Sea Level Pressure 30.05 in    
Wind  
Wind Speed 7 mph (NW)    
Max Wind Speed 18 mph    
Max Gust Speed 20 mph    
Visibility 10 miles    
Events      
Averages and records for this station are not official NWS values.
T = Trace of Precipitation, MM = Missing Value Source: NWS Daily Summary

Daily Weather History Graph

Daily Weather History Graph

Search for Another Location

Airport or City:

Trip Planner

Search our weather history database for the weather conditions in past years. The results will help you decide how hot, cold, wet, or windy it might be!

Date:

Astronomy

Sep. 10, 2013 Rise Set
Actual Time 6:26 AM MDT 7:11 PM MDT
Civil Twilight 5:56 AM MDT 7:40 PM MDT
Nautical Twilight 5:22 AM MDT 8:15 PM MDT
Astronomical Twilight 4:45 AM MDT 8:51 PM MDT
Moon 12:07 PM MDT (9/10) 10:03 PM MDT (9/10)
Length of Visible Light 13h 43m
Length of Day
12h 45m
Waxing Crescent, 29% of the Moon is Illuminated
Sep 10
Waxing Crescent
Sep 12
First Quarter
Sep 19
Full
Sep 26
Last Quarter
Oct 4
New

Hourly Weather History & Observations

Time (MDT) Temp. Dew Point Humidity Pressure Visibility Wind Dir Wind Speed Gust Speed Precip Events Conditions
12:58 AM 60.1 °F 56.7 °F 88% 29.96 in 10.0 mi West 4.6 mph - N/A   Mostly Cloudy
1:58 AM 58.5 °F 55.2 °F 89% 29.97 in 10.0 mi WNW 10.4 mph - N/A   Clear
2:58 AM 57.9 °F 53.8 °F 86% 29.98 in 10.0 mi WNW 3.5 mph - N/A   Clear
3:58 AM 58.3 °F 51.4 °F 78% 29.97 in 10.0 mi NNW 1.2 mph - N/A   Clear
4:58 AM 57.7 °F 50.5 °F 77% 29.99 in 10.0 mi WNW 6.9 mph - N/A   Clear
5:58 AM 59.5 °F 49.8 °F 70% 30.00 in 10.0 mi NW 11.5 mph - N/A   Clear
6:58 AM 59.7 °F 49.3 °F 68% 30.03 in 10.0 mi NW 9.2 mph - N/A   Clear
7:58 AM 66.6 °F 51.1 °F 57% 30.04 in 10.0 mi NW 11.5 mph - N/A   Clear
8:58 AM 66.9 °F 52.0 °F 59% 30.05 in 10.0 mi NNW 10.4 mph - N/A   Clear
9:58 AM 68.7 °F 52.7 °F 57% 30.07 in 10.0 mi NNW 18.4 mph 19.6 mph N/A   Partly Cloudy
10:58 AM 69.4 °F 52.3 °F 54% 30.08 in 10.0 mi North 13.8 mph - N/A   Clear
11:58 AM 71.4 °F 53.2 °F 53% 30.09 in 10.0 mi North 9.2 mph 19.6 mph N/A   Partly Cloudy
12:58 PM 74.1 °F 52.7 °F 47% 30.06 in 10.0 mi North 13.8 mph - N/A   Partly Cloudy
1:58 PM 75.9 °F 51.1 °F 42% 30.06 in 10.0 mi North 15.0 mph - N/A   Partly Cloudy
2:58 PM 75.0 °F 50.5 °F 42% 30.06 in 10.0 mi Variable 5.8 mph - N/A   Scattered Clouds
3:58 PM 75.4 °F 51.6 °F 43% 30.06 in 10.0 mi Variable 1.2 mph - N/A   Scattered Clouds
4:58 PM 75.0 °F 48.6 °F 39% 30.07 in 10.0 mi NNE 6.9 mph - N/A   Scattered Clouds
5:58 PM 74.7 °F 46.2 °F 36% 30.06 in 10.0 mi NNE 3.5 mph - N/A   Mostly Cloudy
6:58 PM 73.0 °F 50.2 °F 44% 30.08 in 10.0 mi South 4.6 mph - N/A   Mostly Cloudy
7:58 PM 72.3 °F 46.8 °F 40% 30.09 in 10.0 mi Variable 2.3 mph - N/A   Clear
8:58 PM 67.5 °F 51.8 °F 57% 30.11 in 10.0 mi East 1.2 mph - N/A   Clear
9:58 PM 68.0 °F 51.6 °F 56% 30.11 in 10.0 mi SW 1.2 mph - N/A   Clear
10:58 PM 65.7 °F 52.5 °F 62% 30.12 in 10.0 mi WSW 3.5 mph - N/A   Clear
11:58 PM 61.5 °F 53.2 °F 74% 30.12 in 10.0 mi WSW 5.8 mph - N/A   Clear